When you browse on this site, cookies collect data to enhance your experience and personalize the content and advertising you see.
Visit our Privacy Policy to learn more. By continuing to use the site, you agree to this use of cookies and data.
  • In Austria
  • List of Countries
  • For 7 days
  • Water Temperature
  • Satellite Maps
  • Weather Map
  • News
  • Weather Widgets
  • user-avatar
    Login

    Hourly Weather Barisal

    Today, 22 April, Monday

    Time Temperature Precipitation Wind Pressure Humidity
    00:00 +30°C° 0 mm 4 mps 754 mmHg 62%
    01:00 +30°C° 0.3 mm 4 mps 754 mmHg 62%
    02:00 +29°C° 0.3 mm 4 mps 754 mmHg 62%
    03:00 +28°C° 0.3 mm 4 mps 753 mmHg 62%
    04:00 +28°C° 0.3 mm 3 mps 753 mmHg 62%
    05:00 +28°C° 0.3 mm 2 mps 754 mmHg 62%
    06:00 +28°C° 0.3 mm 1 mps 754 mmHg 62%
    07:00 +30°C° 0 mm 2 mps 754 mmHg 54%
    08:00 +32°C° 0 mm 2 mps 755 mmHg 46%
    09:00 +35°C° 0 mm 2 mps 755 mmHg 38%
    10:00 +36°C° 0 mm 1 mps 755 mmHg 34%
    11:00 +39°C° 0 mm 1 mps 755 mmHg 29%
    12:00 +40°C° 0 mm 1 mps 755 mmHg 25%
    13:00 +41°C° 0 mm 1 mps 754 mmHg 24%
    14:00 +41°C° 0 mm 2 mps 753 mmHg 24%
    15:00 +41°C° 0 mm 2 mps 753 mmHg 23%
    16:00 +39°C° 0 mm 3 mps 752 mmHg 27%
    17:00 +38°C° 0 mm 4 mps 752 mmHg 31%
    18:00 +37°C° 0 mm 4 mps 752 mmHg 35%
    19:00 +35°C° 0 mm 4 mps 753 mmHg 39%
    20:00 +34°C° 0 mm 3 mps 753 mmHg 43%
    21:00 +33°C° 0 mm 3 mps 754 mmHg 47%
    22:00 +33°C° 0 mm 3 mps 754 mmHg 50%
    23:00 +31°C° 0 mm 3 mps 754 mmHg 53%

    Tomorrow, 23 April, Tuesday

    Time Temperature Precipitation Wind Pressure Humidity
    00:00 +31°C° 0 mm 3 mps 754 mmHg 56%
    01:00 +31°C° 0 mm 3 mps 754 mmHg 60%
    02:00 +30°C° 0 mm 3 mps 754 mmHg 63%
    03:00 +30°C° 0 mm 2 mps 753 mmHg 66%
    04:00 +29°C° 0 mm 2 mps 754 mmHg 69%
    05:00 +29°C° 0 mm 2 mps 754 mmHg 71%
    06:00 +29°C° 0 mm 1 mps 754 mmHg 73%
    07:00 +31°C° 0 mm 2 mps 755 mmHg 65%
    08:00 +34°C° 0 mm 2 mps 755 mmHg 57%
    09:00 +36°C° 0 mm 2 mps 756 mmHg 49%
    10:00 +38°C° 0 mm 2 mps 756 mmHg 42%
    11:00 +40°C° 0 mm 1 mps 756 mmHg 36%
    12:00 +39°C° 0 mm 0 mps 756 mmHg 29%
    13:00 +42°C° 0 mm 1 mps 755 mmHg 27%
    14:00 +41°C° 0 mm 1 mps 754 mmHg 25%
    15:00 +41°C° 0 mm 1 mps 753 mmHg 23%
    16:00 +39°C° 0.2 mm 3 mps 753 mmHg 30%
    17:00 +39°C° 0.2 mm 5 mps 753 mmHg 37%
    18:00 +36°C° 0.2 mm 6 mps 753 mmHg 44%
    19:00 +34°C° 2.8 mm 6 mps 754 mmHg 48%
    20:00 +33°C° 2.8 mm 7 mps 755 mmHg 52%
    21:00 +30°C° 2.8 mm 7 mps 755 mmHg 56%
    22:00 +32°C° 0.1 mm 5 mps 755 mmHg 50%
    23:00 +33°C° 0.1 mm 4 mps 756 mmHg 43%

    Day after tomorrow, 24 April, Wednesday

    Time Temperature Precipitation Wind Pressure Humidity
    00:00 +34°C° 0.1 mm 2 mps 756 mmHg 37%
    01:00 +32°C° 0 mm 2 mps 755 mmHg 42%
    02:00 +31°C° 0 mm 2 mps 755 mmHg 47%
    03:00 +30°C° 0 mm 2 mps 755 mmHg 52%
    04:00 +30°C° 0 mm 2 mps 755 mmHg 52%
    05:00 +29°C° 0 mm 1 mps 755 mmHg 52%
    06:00 +29°C° 0 mm 1 mps 756 mmHg 52%
    07:00 +32°C° 0 mm 1 mps 756 mmHg 46%
    08:00 +34°C° 0 mm 1 mps 757 mmHg 39%
    09:00 +36°C° 0 mm 1 mps 757 mmHg 33%
    10:00 +39°C° 0 mm 2 mps 757 mmHg 30%
    11:00 +40°C° 0 mm 2 mps 757 mmHg 27%
    12:00 +41°C° 0 mm 2 mps 757 mmHg 24%
    13:00 +41°C° 0 mm 2 mps 756 mmHg 24%
    14:00 +42°C° 0 mm 3 mps 755 mmHg 24%
    15:00 +43°C° 0 mm 4 mps 754 mmHg 24%
    16:00 +41°C° 0 mm 4 mps 754 mmHg 27%
    17:00 +40°C° 0 mm 5 mps 753 mmHg 31%
    18:00 +37°C° 0 mm 5 mps 753 mmHg 35%
    19:00 +36°C° 0 mm 5 mps 754 mmHg 40%
    20:00 +35°C° 0 mm 4 mps 754 mmHg 45%
    21:00 +33°C° 0 mm 4 mps 755 mmHg 50%
    22:00 +33°C° 0 mm 4 mps 755 mmHg 53%
    23:00 +33°C° 0 mm 3 mps 755 mmHg 56%

    25 April, Thursday

    Time Temperature Precipitation Wind Pressure Humidity
    00:00 +31°C° 0 mm 3 mps 755 mmHg 58%
    01:00 +31°C° 0 mm 3 mps 755 mmHg 61%
    02:00 +30°C° 0 mm 2 mps 754 mmHg 64%
    03:00 +30°C° 0 mm 2 mps 754 mmHg 66%
    04:00 +30°C° 0 mm 2 mps 754 mmHg 68%
    05:00 +29°C° 0 mm 1 mps 755 mmHg 69%
    06:00 +29°C° 0 mm 1 mps 755 mmHg 70%
    07:00 +31°C° 0 mm 1 mps 756 mmHg 62%
    08:00 +33°C° 0 mm 1 mps 756 mmHg 53%
    09:00 +35°C° 0 mm 1 mps 757 mmHg 44%
    10:00 +37°C° 0 mm 1 mps 757 mmHg 38%
    11:00 +40°C° 0 mm 2 mps 756 mmHg 32%
    12:00 +41°C° 0 mm 2 mps 756 mmHg 26%
    13:00 +43°C° 0 mm 3 mps 755 mmHg 26%
    14:00 +43°C° 0 mm 3 mps 754 mmHg 25%
    15:00 +44°C° 0 mm 4 mps 754 mmHg 24%
    16:00 +42°C° 0 mm 4 mps 753 mmHg 28%
    17:00 +40°C° 0 mm 5 mps 753 mmHg 31%
    18:00 +39°C° 0 mm 5 mps 753 mmHg 34%
    19:00 +37°C° 0 mm 5 mps 754 mmHg 39%
    20:00 +35°C° 0 mm 4 mps 754 mmHg 44%
    21:00 +34°C° 0 mm 4 mps 754 mmHg 48%
    22:00 +33°C° 0 mm 3 mps 754 mmHg 52%
    23:00 +33°C° 0 mm 3 mps 754 mmHg 55%

    26 April, Friday

    Time Temperature Precipitation Wind Pressure Humidity
    00:00 +31°C° 0 mm 3 mps 754 mmHg 59%
    01:00 +31°C° 0 mm 3 mps 753 mmHg 61%
    02:00 +31°C° 0 mm 3 mps 753 mmHg 64%
    03:00 +30°C° 0 mm 3 mps 753 mmHg 66%
    04:00 +30°C° 0 mm 2 mps 753 mmHg 69%
    05:00 +30°C° 0 mm 2 mps 753 mmHg 72%
    06:00 +30°C° 0 mm 1 mps 754 mmHg 75%
    07:00 +32°C° 0 mm 1 mps 755 mmHg 64%
    08:00 +35°C° 0 mm 2 mps 755 mmHg 54%
    09:00 +37°C° 0 mm 2 mps 756 mmHg 43%
    10:00 +39°C° 0 mm 3 mps 755 mmHg 38%
    11:00 +40°C° 0 mm 3 mps 755 mmHg 32%
    12:00 +43°C° 0 mm 3 mps 755 mmHg 26%
    13:00 +43°C° 0 mm 4 mps 754 mmHg 25%
    14:00 +44°C° 0 mm 4 mps 753 mmHg 24%
    15:00 +45°C° 0 mm 5 mps 752 mmHg 23%
    16:00 +42°C° 0 mm 5 mps 752 mmHg 28%
    17:00 +40°C° 0 mm 6 mps 752 mmHg 33%
    18:00 +39°C° 0 mm 6 mps 752 mmHg 38%
    19:00 +36°C° 0 mm 6 mps 753 mmHg 46%
    20:00 +35°C° 0 mm 5 mps 753 mmHg 54%
    21:00 +33°C° 0 mm 5 mps 754 mmHg 62%
    22:00 +33°C° 0 mm 4 mps 754 mmHg 65%
    23:00 +32°C° 0 mm 4 mps 753 mmHg 67%

    27 April, Saturday

    Time Temperature Precipitation Wind Pressure Humidity
    00:00 +32°C° 0 mm 4 mps 753 mmHg 70%
    01:00 +32°C° 0 mm 4 mps 753 mmHg 72%
    02:00 +30°C° 0 mm 4 mps 753 mmHg 73%
    03:00 +30°C° 0 mm 4 mps 753 mmHg 75%
    04:00 +30°C° 0 mm 3 mps 753 mmHg 77%
    05:00 +30°C° 0 mm 3 mps 753 mmHg 79%
    06:00 +30°C° 0 mm 2 mps 754 mmHg 81%
    07:00 +33°C° 0 mm 3 mps 754 mmHg 70%
    08:00 +35°C° 0 mm 4 mps 755 mmHg 59%
    09:00 +37°C° 0 mm 5 mps 755 mmHg 48%
    10:00 +40°C° 0 mm 5 mps 755 mmHg 42%
    11:00 +41°C° 0 mm 6 mps 754 mmHg 36%
    12:00 +44°C° 0 mm 6 mps 754 mmHg 31%
    13:00 +43°C° 0 mm 7 mps 753 mmHg 31%
    14:00 +43°C° 0 mm 7 mps 752 mmHg 32%
    15:00 +43°C° 0 mm 7 mps 752 mmHg 32%
    16:00 +40°C° 0 mm 6 mps 752 mmHg 39%
    17:00 +39°C° 0 mm 6 mps 752 mmHg 45%
    18:00 +36°C° 0 mm 5 mps 752 mmHg 51%
    19:00 +35°C° 0 mm 6 mps 752 mmHg 58%
    20:00 +33°C° 0 mm 6 mps 752 mmHg 65%
    21:00 +32°C° 0 mm 6 mps 753 mmHg 72%
    22:00 +32°C° 0 mm 6 mps 753 mmHg 74%
    23:00 +32°C° 0 mm 6 mps 753 mmHg 77%
    Show more